| time (UTC) | temp C | wind direction | speed KPH | gust KPH | rain 1hr cm | rain 24hr cm | rain mn cm | humidity % | barometer mb |
| 20260508074855 | 9 | 0 | 0.0 | 0.0 | 0.00 | 0.00 | 0.00 | 9 | 1016.7 |
| 20260508074354 | 9 | 0 | 0.0 | 0.0 | 0.00 | 0.00 | 0.00 | 9 | 1016.4 |
| 20260508073854 | 9 | 0 | 0.0 | 0.0 | 0.00 | 0.00 | 0.00 | 9 | 1016.5 |
| 20260508073354 | 9 | 325 | 0.0 | 1.6 | 0.00 | 0.00 | 0.00 | 9 | 1016.4 |
| 20260508072853 | 9 | 0 | 0.0 | 0.0 | 0.00 | 0.00 | 0.00 | 9 | 1016.3 |
| 20260508072353 | 9 | 341 | 0.0 | 1.6 | 0.00 | 0.00 | 0.00 | 9 | 1016.3 |
| 20260508071853 | 9 | 346 | 0.0 | 1.6 | 0.00 | 0.00 | 0.00 | 9 | 1016.4 |
| 20260508071352 | 9 | 0 | 0.0 | 0.0 | 0.00 | 0.00 | 0.00 | 9 | 1016.3 |
| 20260508070852 | 9 | 0 | 0.0 | 0.0 | 0.00 | 0.00 | 0.00 | 9 | 1016.2 |
| 20260508070352 | 9 | 0 | 0.0 | 0.0 | 0.00 | 0.00 | 0.00 | 9 | 1016.3 |
| 20260508065851 | 9 | 0 | 0.0 | 0.0 | 0.00 | 0.00 | 0.00 | 9 | 1015.9 |
| 20260508065351 | 10 | 0 | 0.0 | 0.0 | 0.00 | 0.00 | 0.00 | 9 | 1015.8 |
| 20260508064851 | 9 | 0 | 0.0 | 0.0 | 0.00 | 0.00 | 0.00 | 8 | 1016.0 |
| 20260508064350 | 9 | 323 | 0.0 | 1.6 | 0.00 | 0.00 | 0.00 | 8 | 1016.1 |
| 20260508063850 | 9 | 0 | 0.0 | 0.0 | 0.00 | 0.00 | 0.00 | 8 | 1015.9 |
| 20260508063350 | 10 | 0 | 0.0 | 0.0 | 0.00 | 0.00 | 0.00 | 8 | 1015.9 |
| 20260508062849 | 10 | 0 | 0.0 | 0.0 | 0.00 | 0.00 | 0.00 | 8 | 1015.9 |
| 20260508062349 | 10 | 0 | 0.0 | 0.0 | 0.00 | 0.00 | 0.00 | 8 | 1015.7 |
| 20260508061849 | 10 | 2 | 0.0 | 1.6 | 0.00 | 0.00 | 0.00 | 8 | 1015.8 |
| 20260508061348 | 10 | 0 | 0.0 | 0.0 | 0.00 | 0.00 | 0.00 | 8 | 1015.7 |
| 20260508060848 | 9 | 0 | 0.0 | 0.0 | 0.00 | 0.00 | 0.00 | 8 | 1016.0 |
| 20260508060348 | 10 | 0 | 0.0 | 0.0 | 0.00 | 0.00 | 0.00 | 8 | 1015.9 |
| 20260508055847 | 10 | 358 | 0.0 | 1.6 | 0.00 | 0.00 | 0.00 | 8 | 1015.7 |
| 20260508055347 | 10 | 0 | 0.0 | 0.0 | 0.00 | 0.00 | 0.00 | 8 | 1015.8 |
| 20260508054847 | 10 | 0 | 0.0 | 0.0 | 0.00 | 0.00 | 0.00 | 8 | 1015.7 |
| 20260508054346 | 10 | 351 | 0.0 | 1.6 | 0.00 | 0.00 | 0.00 | 8 | 1015.6 |
| 20260508053846 | 10 | 0 | 0.0 | 0.0 | 0.00 | 0.00 | 0.00 | 8 | 1015.7 |
| 20260508053346 | 10 | 0 | 0.0 | 0.0 | 0.00 | 0.00 | 0.00 | 8 | 1015.5 |
| 20260508052845 | 10 | 344 | 0.0 | 1.6 | 0.00 | 0.00 | 0.00 | 8 | 1015.5 |
| 20260508052345 | 9 | 56 | 0.0 | 1.6 | 0.00 | 0.00 | 0.00 | 8 | 1015.4 |
| 20260508051845 | 10 | 335 | 0.0 | 1.6 | 0.00 | 0.00 | 0.00 | 8 | 1015.3 |
| 20260508051344 | 10 | 0 | 0.0 | 0.0 | 0.00 | 0.00 | 0.00 | 8 | 1015.6 |
| 20260508050844 | 10 | 0 | 0.0 | 0.0 | 0.00 | 0.00 | 0.00 | 8 | 1015.3 |
| 20260508050344 | 9 | 0 | 0.0 | 0.0 | 0.00 | 0.00 | 0.00 | 8 | 1015.3 |
| 20260508045843 | 10 | 0 | 0.0 | 0.0 | 0.00 | 0.00 | 0.00 | 8 | 1015.5 |
| 20260508045343 | 9 | 0 | 0.0 | 0.0 | 0.00 | 0.00 | 0.00 | 8 | 1015.5 |
| 20260508044843 | 10 | 332 | 0.0 | 1.6 | 0.00 | 0.00 | 0.00 | 8 | 1015.4 |
| 20260508044342 | 10 | 0 | 0.0 | 0.0 | 0.00 | 0.00 | 0.00 | 8 | 1015.3 |
| 20260508043842 | 10 | 0 | 0.0 | 0.0 | 0.00 | 0.00 | 0.00 | 8 | 1015.5 |
| 20260508043342 | 9 | 0 | 0.0 | 0.0 | 0.00 | 0.00 | 0.00 | 8 | 1015.4 |
| 20260508042841 | 9 | 353 | 0.0 | 1.6 | 0.00 | 0.00 | 0.00 | 8 | 1015.1 |
| 20260508042341 | 9 | 0 | 0.0 | 0.0 | 0.00 | 0.00 | 0.00 | 8 | 1015.3 |
| 20260508041841 | 9 | 0 | 0.0 | 1.6 | 0.00 | 0.00 | 0.00 | 8 | 1015.2 |
| 20260508041340 | 9 | 339 | 0.0 | 1.6 | 0.00 | 0.00 | 0.00 | 8 | 1015.2 |
| 20260508040840 | 9 | 0 | 0.0 | 0.0 | 0.00 | 0.00 | 0.00 | 8 | 1015.2 |
| 20260508040340 | 9 | 0 | 0.0 | 0.0 | 0.00 | 0.00 | 0.00 | 8 | 1015.2 |
| 20260508035839 | 9 | 0 | 0.0 | 0.0 | 0.00 | 0.00 | 0.00 | 8 | 1015.2 |
| 20260508035339 | 10 | 0 | 0.0 | 0.0 | 0.00 | 0.00 | 0.00 | 8 | 1015.2 |
| 20260508034839 | 9 | 0 | 0.0 | 0.0 | 0.00 | 0.00 | 0.00 | 8 | 1015.2 |
| 20260508034338 | 9 | 0 | 0.0 | 0.0 | 0.00 | 0.00 | 0.00 | 8 | 1015.2 |
| 20260508033838 | 9 | 0 | 0.0 | 0.0 | 0.00 | 0.00 | 0.00 | 8 | 1015.1 |
| 20260508033338 | 9 | 0 | 0.0 | 0.0 | 0.00 | 0.00 | 0.00 | 8 | 1015.3 |
| 20260508032837 | 9 | 0 | 0.0 | 0.0 | 0.00 | 0.00 | 0.00 | 8 | 1015.3 |
| 20260508032337 | 9 | 353 | 0.0 | 1.6 | 0.00 | 0.00 | 0.00 | 8 | 1015.2 |
| 20260508031837 | 10 | 1 | 0.0 | 1.6 | 0.00 | 0.00 | 0.00 | 8 | 1015.2 |
| 20260508031336 | 10 | 0 | 0.0 | 0.0 | 0.00 | 0.00 | 0.00 | 8 | 1015.2 |
| 20260508030836 | 10 | 0 | 0.0 | 0.0 | 0.00 | 0.00 | 0.00 | 8 | 1015.2 |
| 20260508030336 | 10 | 334 | 0.0 | 1.6 | 0.00 | 0.00 | 0.00 | 8 | 1015.2 |
| 20260508025835 | 10 | 13 | 0.0 | 1.6 | 0.00 | 0.00 | 0.00 | 8 | 1015.3 |
| 20260508025335 | 10 | 0 | 0.0 | 0.0 | 0.00 | 0.00 | 0.00 | 8 | 1015.0 |
| 20260508024835 | 10 | 0 | 0.0 | 0.0 | 0.00 | 0.00 | 0.00 | 8 | 1014.9 |
| 20260508024334 | 10 | 0 | 0.0 | 0.0 | 0.00 | 0.00 | 0.00 | 8 | 1014.8 |
| 20260508023834 | 10 | 0 | 0.0 | 0.0 | 0.00 | 0.00 | 0.00 | 8 | 1014.7 |
| 20260508023334 | 10 | 0 | 0.0 | 0.0 | 0.00 | 0.00 | 0.00 | 8 | 1014.9 |
| 20260508022833 | 10 | 0 | 0.0 | 0.0 | 0.00 | 0.00 | 0.00 | 8 | 1014.9 |
| 20260508022333 | 10 | 0 | 0.0 | 0.0 | 0.00 | 0.00 | 0.00 | 8 | 1014.8 |
| 20260508021833 | 10 | 0 | 0.0 | 0.0 | 0.00 | 0.00 | 0.00 | 8 | 1014.9 |
| 20260508021332 | 10 | 0 | 0.0 | 0.0 | 0.00 | 0.00 | 0.00 | 8 | 1014.8 |
| 20260508020832 | 10 | 0 | 0.0 | 0.0 | 0.00 | 0.00 | 0.00 | 8 | 1014.8 |
| 20260508020332 | 10 | 0 | 0.0 | 0.0 | 0.00 | 0.00 | 0.00 | 8 | 1014.7 |
| 20260508015831 | 10 | 33 | 0.0 | 1.6 | 0.00 | 0.00 | 0.00 | 8 | 1014.8 |
| 20260508015331 | 10 | 13 | 0.0 | 1.6 | 0.00 | 0.00 | 0.00 | 8 | 1014.9 |
| 20260508014831 | 10 | 0 | 0.0 | 0.0 | 0.00 | 0.00 | 0.00 | 8 | 1014.6 |
| 20260508014330 | 10 | 0 | 0.0 | 0.0 | 0.00 | 0.00 | 0.00 | 8 | 1015.0 |
| 20260508013830 | 10 | 0 | 0.0 | 0.0 | 0.00 | 0.00 | 0.00 | 8 | 1014.9 |
| 20260508013330 | 10 | 326 | 0.0 | 1.6 | 0.00 | 0.00 | 0.00 | 8 | 1014.8 |
| 20260508012829 | 10 | 0 | 0.0 | 0.0 | 0.00 | 0.00 | 0.00 | 8 | 1014.8 |
| 20260508012329 | 10 | 346 | 0.0 | 1.6 | 0.00 | 0.00 | 0.00 | 8 | 1014.7 |
| 20260508011829 | 10 | 298 | 1.6 | 1.6 | 0.00 | 0.00 | 0.00 | 8 | 1014.6 |
| 20260508011328 | 10 | 21 | 0.0 | 1.6 | 0.00 | 0.00 | 0.00 | 8 | 1015.0 |
| 20260508010828 | 10 | 228 | 1.6 | 3.2 | 0.00 | 0.00 | 0.00 | 8 | 1014.7 |
| 20260508010328 | 10 | 0 | 0.0 | 0.0 | 0.00 | 0.00 | 0.00 | 8 | 1014.9 |
| 20260508005827 | 10 | 287 | 0.0 | 3.2 | 0.00 | 0.00 | 0.00 | 8 | 1014.7 |
| 20260508005327 | 10 | 0 | 0.0 | 0.0 | 0.00 | 0.00 | 0.00 | 8 | 1014.5 |
| 20260508004827 | 10 | 0 | 0.0 | 0.0 | 0.00 | 0.00 | 0.00 | 8 | 1014.7 |
| 20260508004326 | 10 | 0 | 0.0 | 0.0 | 0.00 | 0.00 | 0.00 | 8 | 1014.7 |
| 20260508003826 | 10 | 0 | 0.0 | 0.0 | 0.00 | 0.00 | 0.00 | 8 | 1015.0 |
| 20260508003326 | 10 | 0 | 0.0 | 0.0 | 0.00 | 0.00 | 0.00 | 8 | 1014.6 |
| 20260508002825 | 10 | 0 | 0.0 | 0.0 | 0.00 | 0.00 | 0.00 | 8 | 1014.6 |
| 20260508002325 | 10 | 0 | 0.0 | 0.0 | 0.00 | 0.00 | 0.00 | 8 | 1014.8 |
| 20260508001825 | 10 | 348 | 0.0 | 1.6 | 0.00 | 0.00 | 0.00 | 8 | 1014.7 |
| 20260508001324 | 10 | 0 | 0.0 | 0.0 | 0.00 | 0.00 | 0.00 | 8 | 1014.7 |
| 20260508000824 | 10 | 0 | 0.0 | 0.0 | 0.00 | 0.00 | 0.00 | 8 | 1014.5 |
| 20260508000324 | 10 | 0 | 0.0 | 0.0 | 0.00 | 0.00 | 0.00 | 8 | 1014.6 |
| 20260507235823 | 10 | 0 | 0.0 | 0.0 | 0.00 | 0.00 | 0.00 | 8 | 1014.7 |
| 20260507235323 | 10 | 14 | 0.0 | 1.6 | 0.00 | 0.00 | 0.00 | 8 | 1014.5 |
| 20260507234823 | 10 | 4 | 0.0 | 1.6 | 0.00 | 0.00 | 0.00 | 8 | 1014.7 |
| 20260507234322 | 10 | 0 | 0.0 | 0.0 | 0.00 | 0.00 | 0.00 | 8 | 1014.7 |
| 20260507233822 | 10 | 333 | 0.0 | 1.6 | 0.00 | 0.00 | 0.00 | 8 | 1014.6 |
| 20260507233322 | 10 | 0 | 0.0 | 0.0 | 0.00 | 0.00 | 0.00 | 8 | 1014.6 |
| 20260507232821 | 10 | 347 | 0.0 | 1.6 | 0.00 | 0.00 | 0.00 | 8 | 1014.6 |
| 20260507232321 | 10 | 0 | 0.0 | 0.0 | 0.00 | 0.00 | 0.00 | 8 | 1014.7 |
| 20260507231821 | 10 | 322 | 1.6 | 1.6 | 0.00 | 0.00 | 0.00 | 8 | 1014.8 |
| 20260507231320 | 10 | 0 | 0.0 | 0.0 | 0.00 | 0.00 | 0.00 | 8 | 1014.5 |
| 20260507230820 | 10 | 332 | 0.0 | 1.6 | 0.00 | 0.00 | 0.00 | 8 | 1014.8 |
| 20260507230320 | 11 | 340 | 0.0 | 1.6 | 0.00 | 0.00 | 0.00 | 8 | 1014.6 |
| 20260507225819 | 11 | 0 | 0.0 | 0.0 | 0.00 | 0.00 | 0.00 | 8 | 1014.7 |
| 20260507225319 | 11 | 344 | 0.0 | 1.6 | 0.00 | 0.00 | 0.00 | 8 | 1014.6 |
| 20260507224819 | 11 | 344 | 0.0 | 1.6 | 0.00 | 0.00 | 0.00 | 8 | 1014.6 |
| 20260507224318 | 11 | 0 | 0.0 | 0.0 | 0.00 | 0.00 | 0.00 | 8 | 1014.4 |
| 20260507223818 | 11 | 357 | 0.0 | 1.6 | 0.00 | 0.00 | 0.00 | 8 | 1014.4 |
| 20260507223318 | 11 | 0 | 0.0 | 0.0 | 0.00 | 0.00 | 0.00 | 8 | 1014.5 |
| 20260507222817 | 11 | 0 | 0.0 | 0.0 | 0.00 | 0.00 | 0.00 | 8 | 1014.2 |
| 20260507222317 | 11 | 353 | 0.0 | 1.6 | 0.00 | 0.00 | 0.00 | 8 | 1014.3 |
| 20260507221817 | 11 | 0 | 0.0 | 0.0 | 0.00 | 0.00 | 0.00 | 8 | 1014.4 |
| 20260507221316 | 11 | 53 | 0.0 | 1.6 | 0.00 | 0.00 | 0.00 | 8 | 1014.3 |
| 20260507220816 | 11 | 267 | 3.2 | 3.2 | 0.00 | 0.00 | 0.00 | 8 | 1013.9 |
| 20260507220316 | 11 | 9 | 0.0 | 1.6 | 0.00 | 0.00 | 0.00 | 8 | 1014.1 |
| 20260507215815 | 11 | 347 | 0.0 | 1.6 | 0.00 | 0.00 | 0.00 | 8 | 1014.0 |
| 20260507215315 | 11 | 0 | 0.0 | 0.0 | 0.00 | 0.00 | 0.00 | 8 | 1014.2 |
| 20260507214815 | 11 | 0 | 0.0 | 0.0 | 0.00 | 0.00 | 0.00 | 8 | 1013.9 |
| 20260507214314 | 11 | 338 | 0.0 | 1.6 | 0.00 | 0.00 | 0.00 | 8 | 1013.8 |
| 20260507213814 | 11 | 0 | 0.0 | 0.0 | 0.00 | 0.00 | 0.00 | 8 | 1013.7 |
| 20260507213314 | 11 | 355 | 0.0 | 1.6 | 0.00 | 0.00 | 0.00 | 8 | 1013.7 |
| 20260507212813 | 11 | 53 | 0.0 | 1.6 | 0.00 | 0.00 | 0.00 | 8 | 1013.7 |
| 20260507212313 | 11 | 0 | 0.0 | 0.0 | 0.00 | 0.00 | 0.00 | 8 | 1013.8 |
| 20260507211813 | 11 | 0 | 0.0 | 0.0 | 0.00 | 0.00 | 0.00 | 7 | 1014.0 |
| 20260507211312 | 11 | 0 | 0.0 | 0.0 | 0.00 | 0.00 | 0.00 | 7 | 1013.8 |
| 20260507210812 | 11 | 0 | 0.0 | 0.0 | 0.00 | 0.00 | 0.00 | 8 | 1013.8 |
| 20260507210312 | 11 | 334 | 0.0 | 1.6 | 0.00 | 0.00 | 0.00 | 8 | 1013.9 |
| 20260507205811 | 11 | 0 | 0.0 | 0.0 | 0.00 | 0.00 | 0.00 | 7 | 1013.7 |
| 20260507205311 | 11 | 24 | 0.0 | 1.6 | 0.00 | 0.00 | 0.00 | 7 | 1014.1 |
| 20260507204811 | 11 | 347 | 0.0 | 1.6 | 0.00 | 0.00 | 0.00 | 7 | 1013.7 |
| 20260507204310 | 11 | 0 | 0.0 | 0.0 | 0.00 | 0.00 | 0.00 | 7 | 1013.9 |
| 20260507203810 | 11 | 0 | 0.0 | 0.0 | 0.00 | 0.00 | 0.00 | 7 | 1013.6 |
| 20260507203310 | 11 | 0 | 0.0 | 0.0 | 0.00 | 0.00 | 0.00 | 8 | 1013.7 |
| 20260507202809 | 11 | 0 | 0.0 | 0.0 | 0.00 | 0.00 | 0.00 | 7 | 1013.9 |
| 20260507202309 | 12 | 0 | 0.0 | 0.0 | 0.00 | 0.00 | 0.00 | 7 | 1013.8 |
| 20260507201808 | 11 | 0 | 0.0 | 0.0 | 0.00 | 0.00 | 0.00 | 7 | 1013.8 |
| 20260507201308 | 12 | 0 | 0.0 | 0.0 | 0.00 | 0.00 | 0.00 | 7 | 1013.7 |
| 20260507200808 | 12 | 7 | 0.0 | 1.6 | 0.00 | 0.00 | 0.00 | 7 | 1013.7 |
| 20260507200308 | 12 | 21 | 0.0 | 1.6 | 0.00 | 0.00 | 0.00 | 7 | 1013.8 |
| 20260507195807 | 12 | 0 | 0.0 | 0.0 | 0.00 | 0.00 | 0.00 | 7 | 1013.5 |
| 20260507195307 | 12 | 0 | 0.0 | 0.0 | 0.00 | 0.00 | 0.00 | 7 | 1013.7 |
| 20260507194807 | 12 | 357 | 0.0 | 1.6 | 0.00 | 0.00 | 0.00 | 7 | 1013.7 |
| 20260507194306 | 12 | 0 | 0.0 | 0.0 | 0.00 | 0.00 | 0.00 | 7 | 1013.9 |
| 20260507193806 | 12 | 0 | 0.0 | 0.0 | 0.00 | 0.00 | 0.00 | 7 | 1013.7 |
| 20260507193306 | 12 | 0 | 0.0 | 0.0 | 0.00 | 0.00 | 0.00 | 7 | 1013.9 |
| 20260507192805 | 12 | 0 | 0.0 | 0.0 | 0.00 | 0.00 | 0.00 | 7 | 1013.8 |
| 20260507192306 | 12 | 353 | 0.0 | 1.6 | 0.00 | 0.00 | 0.00 | 7 | 1013.2 |
| 20260507191805 | 12 | 1 | 0.0 | 1.6 | 0.00 | 0.00 | 0.00 | 7 | 1013.4 |
| 20260507191304 | 12 | 0 | 0.0 | 0.0 | 0.00 | 0.00 | 0.00 | 7 | 1013.3 |
| 20260507190804 | 12 | 0 | 0.0 | 0.0 | 0.00 | 0.00 | 0.00 | 7 | 1013.5 |
| 20260507190304 | 12 | 0 | 0.0 | 0.0 | 0.00 | 0.00 | 0.00 | 7 | 1013.1 |
| 20260507185803 | 12 | 0 | 0.0 | 0.0 | 0.00 | 0.00 | 0.00 | 7 | 1013.4 |
| 20260507185305 | 12 | 0 | 0.0 | 0.0 | 0.00 | 0.00 | 0.00 | 7 | 1013.4 |
| 20260507184803 | 12 | 297 | 0.0 | 1.6 | 0.00 | 0.00 | 0.00 | 7 | 1013.4 |
| 20260507184302 | 12 | 0 | 0.0 | 0.0 | 0.00 | 0.00 | 0.00 | 7 | 1013.0 |
| 20260507183802 | 12 | 0 | 0.0 | 0.0 | 0.00 | 0.00 | 0.00 | 7 | 1013.2 |
| 20260507183302 | 12 | 0 | 0.0 | 0.0 | 0.00 | 0.00 | 0.00 | 7 | 1013.1 |
| 20260507182801 | 12 | 0 | 0.0 | 0.0 | 0.00 | 0.00 | 0.00 | 7 | 1013.2 |
| 20260507182301 | 12 | 358 | 0.0 | 1.6 | 0.00 | 0.00 | 0.00 | 7 | 1013.2 |
| 20260507181801 | 12 | 0 | 0.0 | 0.0 | 0.00 | 0.00 | 0.00 | 7 | 1013.2 |
| 20260507181300 | 12 | 0 | 0.0 | 0.0 | 0.00 | 0.00 | 0.00 | 7 | 1013.0 |
| 20260507180800 | 12 | 0 | 0.0 | 0.0 | 0.00 | 0.00 | 0.00 | 7 | 1013.0 |
| 20260507180300 | 12 | 0 | 0.0 | 0.0 | 0.00 | 0.00 | 0.00 | 7 | 1012.9 |
| 20260507175759 | 12 | 0 | 0.0 | 0.0 | 0.00 | 0.00 | 0.00 | 7 | 1012.6 |
| 20260507175259 | 12 | 0 | 0.0 | 0.0 | 0.00 | 0.00 | 0.00 | 7 | 1012.5 |
| 20260507174759 | 12 | 0 | 0.0 | 0.0 | 0.00 | 0.00 | 0.00 | 7 | 1012.5 |
| 20260507174258 | 13 | 0 | 0.0 | 0.0 | 0.00 | 0.00 | 0.00 | 7 | 1012.3 |
| 20260507173758 | 13 | 0 | 0.0 | 0.0 | 0.00 | 0.00 | 0.00 | 7 | 1012.3 |
| 20260507173258 | 12 | 0 | 0.0 | 0.0 | 0.00 | 0.00 | 0.00 | 7 | 1012.1 |
| 20260507172757 | 12 | 334 | 0.0 | 1.6 | 0.00 | 0.00 | 0.00 | 7 | 1012.0 |
| 20260507172257 | 12 | 0 | 0.0 | 0.0 | 0.00 | 0.00 | 0.00 | 7 | 1012.0 |
| 20260507171757 | 13 | 0 | 0.0 | 0.0 | 0.00 | 0.00 | 0.00 | 7 | 1011.6 |
| 20260507171256 | 13 | 0 | 0.0 | 0.0 | 0.00 | 0.00 | 0.00 | 7 | 1011.7 |
| 20260507170756 | 13 | 6 | 0.0 | 1.6 | 0.00 | 0.00 | 0.00 | 7 | 1011.7 |
| 20260507170256 | 13 | 323 | 0.0 | 1.6 | 0.00 | 0.00 | 0.00 | 7 | 1011.7 |
| 20260507165755 | 13 | 0 | 0.0 | 0.0 | 0.00 | 0.00 | 0.00 | 7 | 1011.5 |
| 20260507165255 | 13 | 351 | 0.0 | 1.6 | 0.00 | 0.00 | 0.00 | 7 | 1011.4 |
| 20260507164755 | 13 | 20 | 0.0 | 3.2 | 0.00 | 0.00 | 0.00 | 7 | 1011.5 |
| 20260507164254 | 13 | 23 | 0.0 | 1.6 | 0.00 | 0.00 | 0.00 | 7 | 1011.7 |
| 20260507163754 | 13 | 0 | 0.0 | 0.0 | 0.00 | 0.00 | 0.00 | 7 | 1011.4 |
| 20260507163254 | 13 | 5 | 0.0 | 1.6 | 0.00 | 0.00 | 0.00 | 7 | 1011.6 |
| 20260507162753 | 13 | 0 | 0.0 | 0.0 | 0.00 | 0.00 | 0.00 | 7 | 1011.5 |
| 20260507162253 | 13 | 0 | 0.0 | 0.0 | 0.00 | 0.00 | 0.00 | 7 | 1011.6 |
| 20260507161753 | 13 | 245 | 0.0 | 1.6 | 0.00 | 0.00 | 0.00 | 7 | 1011.3 |
| 20260507161252 | 13 | 0 | 0.0 | 0.0 | 0.00 | 0.00 | 0.00 | 7 | 1011.6 |
| 20260507160752 | 13 | 335 | 0.0 | 1.6 | 0.00 | 0.00 | 0.00 | 7 | 1011.6 |
| 20260507160252 | 13 | 0 | 0.0 | 0.0 | 0.00 | 0.00 | 0.00 | 7 | 1011.6 |
| 20260507155751 | 13 | 298 | 0.0 | 1.6 | 0.00 | 0.00 | 0.00 | 7 | 1011.6 |
| 20260507155251 | 13 | 0 | 0.0 | 0.0 | 0.00 | 0.00 | 0.00 | 7 | 1011.7 |
| 20260507154751 | 13 | 0 | 0.0 | 0.0 | 0.00 | 0.00 | 0.00 | 7 | 1011.7 |
| 20260507154250 | 13 | 0 | 0.0 | 0.0 | 0.00 | 0.00 | 0.00 | 7 | 1012.1 |
| 20260507153750 | 13 | 9 | 0.0 | 1.6 | 0.00 | 0.00 | 0.00 | 7 | 1011.8 |
| 20260507153250 | 13 | 0 | 0.0 | 0.0 | 0.00 | 0.00 | 0.00 | 7 | 1011.9 |
| 20260507152749 | 13 | 0 | 0.0 | 0.0 | 0.00 | 0.00 | 0.00 | 7 | 1011.7 |
| 20260507152249 | 13 | 0 | 0.0 | 0.0 | 0.00 | 0.00 | 0.00 | 7 | 1011.6 |
| 20260507151749 | 14 | 202 | 0.0 | 3.2 | 0.00 | 0.00 | 0.00 | 7 | 1011.7 |
| 20260507151248 | 14 | 336 | 0.0 | 1.6 | 0.00 | 0.00 | 0.00 | 7 | 1011.7 |
| 20260507150748 | 14 | 0 | 0.0 | 0.0 | 0.00 | 0.00 | 0.00 | 7 | 1011.6 |
| 20260507150248 | 14 | 332 | 1.6 | 3.2 | 0.00 | 0.00 | 0.00 | 7 | 1011.4 |
| 20260507145747 | 14 | 358 | 0.0 | 3.2 | 0.00 | 0.00 | 0.00 | 7 | 1011.8 |
| 20260507145247 | 15 | 0 | 0.0 | 0.0 | 0.00 | 0.00 | 0.00 | 7 | 1011.6 |
| 20260507144747 | 14 | 354 | 0.0 | 1.6 | 0.00 | 0.00 | 0.00 | 7 | 1011.5 |
| 20260507144246 | 14 | 6 | 0.0 | 1.6 | 0.00 | 0.00 | 0.00 | 7 | 1011.4 |
| 20260507143746 | 14 | 0 | 0.0 | 0.0 | 0.00 | 0.00 | 0.00 | 7 | 1011.6 |
| 20260507143246 | 14 | 46 | 0.0 | 1.6 | 0.00 | 0.00 | 0.00 | 7 | 1011.4 |
| 20260507142745 | 14 | 317 | 1.6 | 1.6 | 0.00 | 0.00 | 0.00 | 7 | 1011.4 |
| 20260507142245 | 14 | 0 | 0.0 | 0.0 | 0.00 | 0.00 | 0.00 | 7 | 1011.4 |
| 20260507141745 | 14 | 355 | 0.0 | 1.6 | 0.00 | 0.00 | 0.00 | 7 | 1011.2 |
| 20260507141244 | 14 | 331 | 0.0 | 1.6 | 0.00 | 0.00 | 0.00 | 7 | 1011.2 |
| 20260507140744 | 14 | 141 | 0.0 | 1.6 | 0.00 | 0.00 | 0.00 | 7 | 1011.2 |
| 20260507140244 | 15 | 275 | 1.6 | 3.2 | 0.00 | 0.00 | 0.00 | 7 | 1011.1 |
| 20260507135743 | 15 | 351 | 0.0 | 1.6 | 0.00 | 0.00 | 0.00 | 7 | 1011.3 |
| 20260507135243 | 15 | 0 | 0.0 | 0.0 | 0.00 | 0.00 | 0.00 | 7 | 1011.1 |
| 20260507134743 | 15 | 0 | 0.0 | 0.0 | 0.00 | 0.00 | 0.00 | 7 | 1011.1 |
| 20260507134242 | 15 | 349 | 0.0 | 1.6 | 0.00 | 0.00 | 0.00 | 7 | 1011.0 |
| 20260507133742 | 15 | 0 | 0.0 | 0.0 | 0.00 | 0.00 | 0.00 | 7 | 1011.3 |
| 20260507133242 | 15 | 344 | 0.0 | 1.6 | 0.00 | 0.00 | 0.00 | 7 | 1011.4 |
| 20260507132741 | 15 | 359 | 0.0 | 1.6 | 0.00 | 0.00 | 0.00 | 7 | 1011.4 |
| 20260507132241 | 15 | 68 | 0.0 | 1.6 | 0.00 | 0.00 | 0.00 | 7 | 1011.0 |
| 20260507131741 | 15 | 0 | 0.0 | 0.0 | 0.00 | 0.00 | 0.00 | 7 | 1010.8 |
| 20260507131240 | 15 | 0 | 0.0 | 0.0 | 0.00 | 0.00 | 0.00 | 7 | 1011.2 |
| 20260507130740 | 14 | 15 | 0.0 | 1.6 | 0.00 | 0.00 | 0.00 | 7 | 1010.8 |
| 20260507130240 | 14 | 249 | 3.2 | 3.2 | 0.00 | 0.00 | 0.00 | 7 | 1010.9 |
| 20260507125739 | 14 | 0 | 0.0 | 0.0 | 0.00 | 0.00 | 0.00 | 7 | 1011.0 |
| 20260507125239 | 14 | 0 | 0.0 | 0.0 | 0.00 | 0.00 | 0.00 | 7 | 1010.9 |
| 20260507124739 | 14 | 352 | 0.0 | 1.6 | 0.00 | 0.00 | 0.00 | 7 | 1011.2 |
| 20260507124238 | 14 | 4 | 0.0 | 1.6 | 0.00 | 0.00 | 0.00 | 7 | 1011.1 |
| 20260507123738 | 14 | 0 | 0.0 | 0.0 | 0.00 | 0.00 | 0.00 | 7 | 1011.1 |
| 20260507123238 | 15 | 201 | 3.2 | 3.2 | 0.00 | 0.00 | 0.00 | 7 | 1011.1 |
| 20260507122737 | 15 | 11 | 0.0 | 1.6 | 0.00 | 0.00 | 0.00 | 7 | 1011.2 |
| 20260507122237 | 15 | 294 | 1.6 | 1.6 | 0.00 | 0.00 | 0.00 | 7 | 1010.9 |
| 20260507121737 | 15 | 343 | 0.0 | 1.6 | 0.00 | 0.00 | 0.00 | 7 | 1010.8 |
| 20260507121236 | 15 | 290 | 0.0 | 1.6 | 0.00 | 0.00 | 0.00 | 7 | 1011.1 |
| 20260507120736 | 15 | 350 | 0.0 | 1.6 | 0.00 | 0.00 | 0.00 | 7 | 1010.9 |
| 20260507120236 | 15 | 8 | 0.0 | 1.6 | 0.00 | 0.00 | 0.00 | 7 | 1011.1 |
| 20260507115735 | 15 | 0 | 0.0 | 0.0 | 0.00 | 0.00 | 0.00 | 7 | 1011.0 |
| 20260507115235 | 15 | 345 | 0.0 | 1.6 | 0.00 | 0.00 | 0.00 | 7 | 1011.0 |
| 20260507114735 | 15 | 0 | 0.0 | 0.0 | 0.00 | 0.00 | 0.00 | 7 | 1010.8 |
| 20260507114234 | 15 | 0 | 0.0 | 0.0 | 0.00 | 0.00 | 0.00 | 7 | 1010.8 |
| 20260507113734 | 14 | 0 | 0.0 | 1.6 | 0.00 | 0.00 | 0.00 | 8 | 1010.9 |
| 20260507113234 | 13 | 0 | 0.0 | 0.0 | 0.00 | 0.00 | 0.00 | 8 | 1010.8 |
| 20260507112733 | 14 | 220 | 1.6 | 3.2 | 0.00 | 0.00 | 0.00 | 8 | 1010.7 |
| 20260507112233 | 13 | 0 | 0.0 | 0.0 | 0.00 | 0.00 | 0.00 | 8 | 1010.8 |
| 20260507111733 | 12 | 0 | 0.0 | 0.0 | 0.00 | 0.00 | 0.00 | 8 | 1010.8 |
| 20260507111232 | 13 | 305 | 0.0 | 1.6 | 0.00 | 0.00 | 0.00 | 8 | 1010.6 |
| 20260507110732 | 13 | 246 | 1.6 | 3.2 | 0.00 | 0.00 | 0.00 | 8 | 1010.7 |
| 20260507110232 | 13 | 351 | 1.6 | 3.2 | 0.00 | 0.00 | 0.00 | 8 | 1010.6 |
| 20260507105731 | 13 | 337 | 0.0 | 1.6 | 0.00 | 0.00 | 0.00 | 8 | 1010.6 |
| 20260507105231 | 13 | 346 | 0.0 | 1.6 | 0.00 | 0.00 | 0.00 | 8 | 1010.6 |
| 20260507104731 | 12 | 0 | 0.0 | 0.0 | 0.00 | 0.00 | 0.00 | 8 | 1010.5 |
| 20260507104230 | 12 | 0 | 0.0 | 0.0 | 0.00 | 0.00 | 0.00 | 8 | 1010.4 |
| 20260507103730 | 13 | 335 | 0.0 | 1.6 | 0.00 | 0.00 | 0.00 | 8 | 1010.1 |
| 20260507103230 | 13 | 0 | 0.0 | 0.0 | 0.00 | 0.00 | 0.00 | 8 | 1010.3 |
| 20260507102729 | 13 | 0 | 0.0 | 0.0 | 0.00 | 0.00 | 0.00 | 8 | 1010.6 |
| 20260507102229 | 13 | 0 | 0.0 | 0.0 | 0.00 | 0.00 | 0.00 | 8 | 1010.2 |
| 20260507101729 | 13 | 0 | 0.0 | 0.0 | 0.00 | 0.00 | 0.00 | 8 | 1010.1 |
| 20260507101228 | 13 | 0 | 0.0 | 0.0 | 0.00 | 0.00 | 0.00 | 8 | 1009.9 |
| 20260507100728 | 13 | 0 | 0.0 | 0.0 | 0.00 | 0.00 | 0.00 | 8 | 1010.1 |
| 20260507100228 | 13 | 307 | 0.0 | 1.6 | 0.00 | 0.00 | 0.00 | 8 | 1010.0 |
| 20260507095727 | 13 | 16 | 0.0 | 1.6 | 0.00 | 0.00 | 0.00 | 8 | 1009.8 |
| 20260507095227 | 13 | 307 | 1.6 | 3.2 | 0.00 | 0.00 | 0.00 | 8 | 1009.9 |
| 20260507094727 | 13 | 355 | 0.0 | 1.6 | 0.00 | 0.00 | 0.00 | 8 | 1009.7 |
| 20260507094226 | 13 | 0 | 0.0 | 0.0 | 0.00 | 0.00 | 0.00 | 8 | 1009.5 |
| 20260507093726 | 13 | 326 | 0.0 | 1.6 | 0.00 | 0.00 | 0.00 | 8 | 1009.5 |
| 20260507093226 | 13 | 0 | 0.0 | 0.0 | 0.00 | 0.00 | 0.00 | 8 | 1009.6 |
| 20260507092725 | 13 | 0 | 0.0 | 0.0 | 0.00 | 0.00 | 0.00 | 8 | 1009.5 |
| 20260507092225 | 13 | 0 | 0.0 | 0.0 | 0.00 | 0.00 | 0.00 | 8 | 1009.5 |
| 20260507091725 | 13 | 350 | 0.0 | 1.6 | 0.00 | 0.00 | 0.00 | 8 | 1009.7 |
| 20260507091224 | 13 | 7 | 0.0 | 1.6 | 0.00 | 0.00 | 0.00 | 8 | 1009.4 |
| 20260507090724 | 13 | 318 | 0.0 | 1.6 | 0.00 | 0.00 | 0.00 | 8 | 1009.2 |
| 20260507090224 | 13 | 323 | 0.0 | 1.6 | 0.00 | 0.00 | 0.00 | 8 | 1009.3 |
| 20260507085723 | 13 | 0 | 0.0 | 0.0 | 0.00 | 0.00 | 0.00 | 8 | 1009.4 |
| 20260507085223 | 13 | 344 | 0.0 | 1.6 | 0.00 | 0.00 | 0.00 | 8 | 1009.1 |
| 20260507084723 | 14 | 5 | 0.0 | 3.2 | 0.00 | 0.00 | 0.00 | 8 | 1008.8 |
| 20260507084222 | 14 | 341 | 0.0 | 1.6 | 0.00 | 0.00 | 0.00 | 8 | 1008.8 |
| 20260507083722 | 15 | 0 | 0.0 | 0.0 | 0.00 | 0.00 | 0.00 | 8 | 1008.9 |
| 20260507083222 | 15 | 0 | 0.0 | 0.0 | 0.00 | 0.00 | 0.00 | 8 | 1008.8 |
| 20260507082721 | 15 | 265 | 0.0 | 1.6 | 0.00 | 0.00 | 0.00 | 8 | 1008.6 |
| 20260507082221 | 15 | 0 | 0.0 | 0.0 | 0.00 | 0.00 | 0.00 | 8 | 1008.6 |
| 20260507081721 | 15 | 0 | 0.0 | 0.0 | 0.00 | 0.00 | 0.00 | 8 | 1008.4 |
| 20260507081220 | 15 | 0 | 0.0 | 0.0 | 0.00 | 0.00 | 0.00 | 8 | 1008.4 |
| 20260507080720 | 15 | 0 | 0.0 | 0.0 | 0.00 | 0.00 | 0.00 | 8 | 1008.3 |
| 20260507080220 | 15 | 0 | 0.0 | 0.0 | 0.00 | 0.00 | 0.00 | 8 | 1008.4 |
| 20260507075719 | 14 | 0 | 0.0 | 0.0 | 0.00 | 0.00 | 0.00 | 8 | 1008.4 |